EW8360 Weather Reports


Display with metric or nautical units.
time (UTC)temp
F
wind
direction
speed
MPH
gust
MPH
rain 1hr
in
rain 24hr
in
rain mn
in
humidity
%
barometer
mb
20260509031100 62 306 5.0 6.0 0.00 0.00 0.00 89 1012.8
20260509030559 62 261 2.0 6.0 0.00 0.00 0.00 89 1012.8
20260509030059 62 280 1.0 6.0 0.00 0.00 0.00 88 1012.7
20260509025557 62 342 3.0 7.0 0.00 0.00 0.00 88 1012.7
20260509025058 62 271 2.0 7.0 0.00 0.00 0.00 88 1012.6
20260509024559 62 262 2.0 7.0 0.00 0.00 0.00 88 1012.6
20260509024058 62 258 0.0 8.0 0.00 0.00 0.00 88 1012.5
20260509023559 62 265 2.0 8.0 0.00 0.00 0.00 88 1012.5
20260509023057 62 237 2.0 7.0 0.00 0.00 0.00 88 1012.5
20260509022558 63 274 2.0 7.0 0.00 0.00 0.00 87 1012.4
20260509022058 63 267 5.0 7.0 0.00 0.00 0.00 87 1012.5
20260509021558 63 326 3.0 7.0 0.00 0.00 0.00 87 1012.3
20260509021057 64 275 4.0 7.0 0.00 0.00 0.00 86 1012.4
20260509020559 64 328 4.0 9.0 0.00 0.00 0.00 85 1012.3
20260509020058 64 318 3.0 9.0 0.00 0.00 0.00 84 1012.3
20260509015556 65 323 2.0 8.0 0.00 0.00 0.00 84 1012.2
20260509015057 65 258 2.0 8.0 0.00 0.00 0.00 83 1012.2
20260509014559 65 239 3.0 8.0 0.00 0.00 0.00 82 1012.2
20260509014059 66 286 4.0 9.0 0.00 0.00 0.00 82 1012.1
20260509013556 66 273 3.0 9.0 0.00 0.00 0.00 81 1012.1
20260509013057 66 260 3.0 8.0 0.00 0.00 0.00 80 1012.2
20260509012557 66 304 3.0 8.0 0.00 0.00 0.00 79 1012.2
20260509012058 66 306 1.0 8.0 0.00 0.00 0.00 78 1012.1
20260509011556 66 345 3.0 8.0 0.00 0.00 0.00 79 1012.2
20260509011056 67 273 2.0 8.0 0.00 0.00 0.00 79 1012.2
20260509010557 67 258 2.0 8.0 0.00 0.00 0.00 79 1012.2
20260509010057 67 269 3.0 8.0 0.00 0.00 0.00 79 1012.2
20260509005556 68 241 3.0 8.0 0.00 0.00 0.00 77 1012.2
20260509005055 68 300 5.0 9.0 0.00 0.00 0.00 78 1012.2
20260509004555 68 294 6.0 9.0 0.00 0.00 0.00 77 1012.2
20260509004315 68 258 2.0 7.0 0.00 0.00 0.00 76 1012.2
20260509003557 68 251 3.0 7.0 0.00 0.00 0.00 76 1012.2
20260509003055 68 275 3.0 7.0 0.00 0.00 0.00 74 1012.2
20260509002611 68 291 3.0 8.0 0.00 0.00 0.00 75 1012.3
20260509002056 68 251 2.0 8.0 0.00 0.00 0.00 75 1012.2
20260509001559 69 211 2.0 8.0 0.00 0.00 0.00 75 1012.2
20260509001315 69 262 4.0 8.0 0.00 0.00 0.00 74 1012.2
20260509000554 69 284 1.0 8.0 0.00 0.00 0.00 74 1012.3
20260509000326 69 261 2.0 9.0 0.00 0.00 0.00 73 1012.3
20260508235557 69 328 5.0 9.0 0.00 0.00 0.00 75 1012.3
20260508235055 69 258 3.0 8.0 0.00 0.00 0.00 75 1012.4
20260508234554 69 243 3.0 9.0 0.00 0.00 0.00 72 1012.4
20260508234055 68 304 5.0 10.0 0.00 0.00 0.00 74 1012.5
20260508233555 68 331 5.0 10.0 0.00 0.00 0.00 72 1012.4
20260508233053 68 257 3.0 9.0 0.00 0.00 0.00 73 1012.4
20260508232553 68 310 6.0 9.0 0.00 0.00 0.00 74 1012.4
20260508232053 68 359 4.0 10.0 0.00 0.00 0.00 74 1012.4
20260508231816 68 319 3.0 10.0 0.00 0.00 0.00 74 1012.6
20260508231052 68 8 6.0 10.0 0.00 0.00 0.00 75 1012.6
20260508230823 68 340 5.0 8.0 0.00 0.00 0.00 73 1012.7
20260508230314 67 339 3.0 10.0 0.00 0.00 0.00 75 1012.7
20260508225554 67 287 6.0 13.0 0.00 0.00 0.00 74 1012.7
20260508225054 67 215 3.0 13.0 0.00 0.00 0.00 74 1012.7
20260508224553 67 303 6.0 10.0 0.00 0.00 0.00 75 1012.7
20260508224052 67 332 6.0 13.0 0.00 0.00 0.00 73 1012.9
20260508223553 67 260 6.0 13.0 0.00 0.00 0.00 75 1012.9
20260508223053 67 327 9.0 13.0 0.00 0.00 0.00 75 1012.9
20260508222553 67 320 4.0 13.0 0.00 0.00 0.00 75 1012.9
20260508222054 67 337 2.0 13.0 0.00 0.00 0.00 77 1012.9
20260508221553 67 326 4.0 15.0 0.00 0.00 0.00 76 1013.0
20260508221315 67 277 5.0 15.0 0.00 0.00 0.00 76 1013.1
20260508220553 67 325 8.0 16.0 0.00 0.00 0.00 77 1013.1
20260508220052 68 1 11.0 16.0 0.00 0.00 0.00 77 1013.1
20260508215553 68 18 6.0 13.0 0.00 0.00 0.00 75 1013.1
20260508215324 68 336 8.0 13.0 0.00 0.00 0.00 75 1013.3
20260508214816 68 249 3.0 10.0 0.00 0.00 0.00 74 1013.2
20260508214051 68 273 5.0 12.0 0.00 0.00 0.00 72 1013.3
20260508213554 68 319 4.0 12.0 0.00 0.00 0.00 73 1013.3
20260508213316 69 304 7.0 12.0 0.00 0.00 0.00 73 1013.3
20260508212816 69 301 4.0 15.0 0.00 0.00 0.00 73 1013.4
20260508212051 69 266 7.0 15.0 0.00 0.00 0.00 74 1013.3
20260508211552 69 348 5.0 9.0 0.00 0.00 0.00 72 1013.4
20260508211052 69 267 5.0 9.0 0.00 0.00 0.00 72 1013.3
20260508210807 69 262 3.0 9.0 0.00 0.00 0.00 71 1013.3
20260508210051 69 298 4.0 10.0 0.00 0.00 0.00 71 1013.2
20260508205551 69 231 2.0 10.0 0.00 0.00 0.00 72 1013.2
20260508205052 70 303 3.0 9.0 0.00 0.00 0.00 71 1013.2
20260508204550 70 281 5.0 9.0 0.00 0.00 0.00 72 1013.2
20260508204049 70 273 1.0 8.0 0.00 0.00 0.00 71 1013.4
20260508203811 69 296 3.0 8.0 0.00 0.00 0.00 72 1013.3
20260508203051 70 311 4.0 10.0 0.00 0.00 0.00 72 1013.3
20260508202550 70 295 2.0 10.0 0.00 0.00 0.00 71 1013.3
20260508202314 70 325 6.0 8.0 0.00 0.00 0.00 70 1013.3
20260508201549 70 277 6.0 10.0 0.00 0.00 0.00 71 1013.3
20260508201051 70 256 3.0 10.0 0.00 0.00 0.00 72 1013.4
20260508200549 70 334 4.0 9.0 0.00 0.00 0.00 72 1013.4
20260508200050 69 309 4.0 9.0 0.00 0.00 0.00 72 1013.5
20260508195809 69 265 3.0 10.0 0.00 0.00 0.00 71 1013.5
20260508195050 69 276 6.0 10.0 0.00 0.00 0.00 70 1013.6
20260508194550 69 292 3.0 9.0 0.00 0.00 0.00 71 1013.6
20260508194048 69 277 3.0 10.0 0.00 0.00 0.00 71 1013.6
20260508193549 70 241 4.0 10.0 0.00 0.00 0.00 71 1013.6
20260508193050 70 277 5.0 7.0 0.00 0.00 0.00 71 1013.8
20260508192550 70 275 4.0 9.0 0.00 0.00 0.00 73 1013.8
20260508192313 70 291 4.0 9.0 0.00 0.00 0.00 73 1013.8
20260508191049 70 247 2.0 10.0 0.00 0.00 0.00 72 1014.0
20260508190549 70 261 3.0 9.0 0.00 0.00 0.00 70 1013.9
20260508190314 70 348 6.0 9.0 0.00 0.00 0.00 72 1013.9
20260508185549 70 284 4.0 9.0 0.00 0.00 0.00 70 1014.0
20260508185048 69 246 3.0 9.0 0.00 0.00 0.00 70 1014.0
20260508184550 69 269 5.0 9.0 0.00 0.00 0.00 71 1014.0
20260508184048 69 289 3.0 9.0 0.00 0.00 0.00 72 1014.1
20260508183547 69 293 3.0 9.0 0.00 0.00 0.00 72 1014.2
20260508183050 69 340 5.0 10.0 0.00 0.00 0.00 72 1014.2
20260508182548 69 275 3.0 10.0 0.00 0.00 0.00 73 1014.3
20260508182047 69 294 5.0 8.0 0.00 0.00 0.00 74 1014.3
20260508181547 68 309 5.0 10.0 0.00 0.00 0.00 73 1014.3
20260508181048 68 355 6.0 10.0 0.00 0.00 0.00 71 1014.3
20260508180548 67 294 2.0 10.0 0.00 0.00 0.00 72 1014.4
20260508180047 67 303 2.0 10.0 0.00 0.00 0.00 73 1014.4
20260508175813 66 42 1.0 9.0 0.00 0.00 0.00 75 1014.4
20260508174547 66 348 6.0 9.0 0.00 0.00 0.00 76 1014.5
20260508174045 66 330 8.0 9.0 0.00 0.00 0.00 77 1014.5
20260508173547 66 342 6.0 9.0 0.00 0.00 0.00 78 1014.6
20260508173048 65 330 5.0 7.0 0.00 0.00 0.00 77 1014.6
20260508172546 65 259 2.0 6.0 0.00 0.00 0.00 75 1014.6
20260508172310 65 282 1.0 6.0 0.00 0.00 0.00 78 1014.7
20260508171546 65 302 5.0 6.0 0.00 0.00 0.00 77 1014.6
20260508171045 65 271 1.0 6.0 0.00 0.00 0.00 77 1014.7
20260508170546 64 259 1.0 6.0 0.00 0.00 0.00 79 1014.7
20260508170046 64 283 2.0 5.0 0.00 0.00 0.00 80 1014.7
20260508165546 64 291 1.0 6.0 0.00 0.00 0.00 81 1014.7
20260508165044 63 260 2.0 6.0 0.00 0.00 0.00 81 1014.7
20260508164546 63 300 1.0 6.0 0.00 0.00 0.00 80 1014.8
20260508164046 62 256 0.0 6.0 0.00 0.00 0.00 80 1014.8
20260508163544 62 272 1.0 5.0 0.00 0.00 0.00 82 1014.8
20260508163041 62 281 2.0 6.0 0.00 0.00 0.00 82 1014.8
20260508162545 62 283 4.0 6.0 0.00 0.00 0.00 83 1014.8
20260508162046 62 358 2.0 6.0 0.00 0.00 0.00 83 1014.8
20260508161544 62 2 3.0 7.0 0.00 0.00 0.00 83 1014.7
20260508161045 62 300 4.0 7.0 0.00 0.00 0.00 84 1014.8
20260508160546 62 338 5.0 7.0 0.00 0.00 0.00 84 1014.9
20260508160045 62 286 0.0 5.0 0.00 0.00 0.00 85 1014.9
20260508155544 62 277 3.0 3.0 0.00 0.00 0.00 84 1014.9
20260508155044 62 271 2.0 2.0 0.00 0.00 0.00 84 1015.0
20260508154804 61 259 0.0 2.0 0.00 0.00 0.00 84 1014.9
20260508154044 61 254 1.0 3.0 0.00 0.00 0.00 84 1014.9
20260508153543 61 282 1.0 3.0 0.00 0.00 0.00 85 1014.9
20260508153304 61 283 1.0 5.0 0.00 0.00 0.00 85 1015.0
20260508152544 61 246 1.0 5.0 0.00 0.00 0.00 86 1015.0
20260508152044 61 232 4.0 5.0 0.00 0.00 0.00 85 1015.0
20260508151808 61 256 0.0 5.0 0.00 0.00 0.00 86 1014.9
20260508151305 61 237 0.0 5.0 0.00 0.00 0.00 86 1015.0
20260508150544 61 263 2.0 3.0 0.00 0.00 0.00 86 1014.9
20260508150043 61 264 1.0 3.0 0.00 0.00 0.00 87 1015.0
20260508145542 61 291 1.0 3.0 0.00 0.00 0.00 87 1015.0
20260508145307 61 250 0.0 2.0 0.00 0.00 0.00 87 1014.9
20260508144544 61 257 1.0 2.0 0.00 0.00 0.00 87 1014.9
20260508144045 60 265 0.0 0.0 0.00 0.00 0.00 87 1014.9
20260508143541 60 267 0.0 1.0 0.00 0.00 0.00 87 1014.9
20260508143041 60 256 0.0 1.0 0.00 0.00 0.00 87 1014.9
20260508142543 60 258 0.0 1.0 0.00 0.00 0.00 87 1014.9
20260508142043 60 256 0.0 1.0 0.00 0.00 0.00 87 1014.8
20260508141544 60 257 0.0 1.0 0.00 0.00 0.00 88 1014.7
20260508141043 60 267 0.0 1.0 0.00 0.00 0.00 88 1014.7
20260508140541 60 269 0.0 1.0 0.00 0.00 0.00 88 1014.6
20260508140042 60 234 1.0 1.0 0.00 0.00 0.00 88 1014.7
20260508135542 60 248 0.0 1.0 0.00 0.00 0.00 88 1014.7
20260508135041 60 255 0.0 1.0 0.00 0.00 0.00 88 1014.6
20260508134540 60 245 0.0 2.0 0.00 0.00 0.00 88 1014.6
20260508134041 60 224 1.0 2.0 0.00 0.00 0.00 88 1014.6
20260508133543 60 220 1.0 2.0 0.00 0.00 0.00 88 1014.4
20260508133040 60 248 0.0 2.0 0.00 0.00 0.00 89 1014.4
20260508132541 60 225 2.0 2.0 0.00 0.00 0.00 89 1014.4
20260508132040 60 231 1.0 1.0 0.00 0.00 0.00 89 1014.3
20260508131541 60 248 0.0 1.0 0.00 0.00 0.00 89 1014.3
20260508131040 60 251 0.0 3.0 0.00 0.00 0.00 89 1014.2
20260508130540 60 251 0.0 3.0 0.00 0.00 0.00 89 1014.4
20260508130041 60 220 2.0 2.0 0.00 0.00 0.00 89 1014.2
20260508125541 60 244 0.0 1.0 0.00 0.00 0.00 89 1014.2
20260508125039 60 252 0.0 3.0 0.00 0.00 0.00 89 1014.2
20260508124540 60 254 0.0 3.0 0.00 0.00 0.00 89 1014.2
20260508124306 60 244 1.0 2.0 0.00 0.00 0.00 89 1014.1
20260508123539 60 254 0.0 1.0 0.00 0.00 0.00 89 1014.1
20260508123300 60 265 0.0 1.0 0.00 0.00 0.00 90 1014.2
20260508122041 60 262 0.0 1.0 0.00 0.00 0.00 89 1014.1
20260508121541 60 251 0.0 2.0 0.00 0.00 0.00 89 1014.1
20260508121038 60 259 0.0 2.0 0.00 0.00 0.00 89 1014.1
20260508120538 60 234 1.0 2.0 0.00 0.00 0.00 89 1014.1
20260508120039 60 249 0.0 2.0 0.00 0.00 0.00 89 1014.2
20260508115540 60 247 0.0 3.0 0.00 0.00 0.00 89 1014.1
20260508115038 60 250 0.0 3.0 0.00 0.00 0.00 89 1014.1
20260508114537 60 241 0.0 0.0 0.00 0.00 0.00 89 1014.1
20260508114039 60 243 0.0 0.0 0.00 0.00 0.00 89 1014.0
20260508113539 60 252 0.0 2.0 0.00 0.00 0.00 89 1014.1
20260508113037 60 262 0.0 2.0 0.00 0.00 0.00 89 1014.1
20260508112538 60 239 1.0 2.0 0.00 0.00 0.00 89 1014.0
20260508112039 60 256 0.0 2.0 0.00 0.00 0.00 89 1014.0
20260508111539 60 251 0.0 6.0 0.00 0.00 0.00 89 1014.0
20260508111037 60 226 1.0 6.0 0.00 0.00 0.00 89 1014.0
20260508110537 60 240 3.0 5.0 0.00 0.00 0.00 89 1014.0
20260508110036 60 241 1.0 3.0 0.00 0.00 0.00 88 1014.1
20260508105537 60 253 1.0 2.0 0.00 0.00 0.00 88 1014.0
20260508105038 60 243 1.0 2.0 0.00 0.00 0.00 88 1014.1
20260508104537 60 253 0.0 2.0 0.00 0.00 0.00 88 1014.0
20260508104036 60 248 0.0 3.0 0.00 0.00 0.00 88 1014.1
20260508103538 60 231 1.0 5.0 0.00 0.00 0.00 88 1014.1
20260508103257 60 245 1.0 5.0 0.00 0.00 0.00 88 1014.2
20260508102758 60 215 2.0 5.0 0.00 0.00 0.00 88 1014.3
20260508102036 60 258 3.0 5.0 0.00 0.00 0.00 88 1014.3
20260508101535 60 224 2.0 3.0 0.00 0.00 0.00 88 1014.3
20260508101036 60 248 0.0 2.0 0.00 0.00 0.00 88 1014.4
20260508100536 60 238 1.0 2.0 0.00 0.00 0.00 88 1014.4
20260508100034 60 243 1.0 5.0 0.00 0.00 0.00 88 1014.4
20260508095801 60 241 1.0 6.0 0.00 0.00 0.00 88 1014.3
20260508095035 60 223 2.0 6.0 0.00 0.00 0.00 88 1014.3
20260508094534 60 202 2.0 3.0 0.00 0.00 0.00 88 1014.2
20260508094033 60 239 1.0 3.0 0.00 0.00 0.00 89 1014.2
20260508093535 60 226 2.0 2.0 0.00 0.00 0.00 88 1014.1
20260508093035 60 245 0.0 2.0 0.00 0.00 0.00 88 1014.2
20260508092535 60 252 0.0 1.0 0.00 0.00 0.00 88 1014.2
20260508092033 60 244 0.0 0.0 0.00 0.00 0.00 89 1014.2
20260508091534 60 261 0.0 0.0 0.00 0.00 0.00 89 1014.3
20260508091034 60 270 0.0 1.0 0.00 0.00 0.00 89 1014.2
20260508090534 60 295 1.0 2.0 0.00 0.00 0.00 89 1014.2
20260508090033 60 231 1.0 2.0 0.00 0.00 0.00 89 1014.2
20260508085534 60 226 1.0 3.0 0.00 0.00 0.00 89 1014.3
20260508085034 60 223 2.0 5.0 0.00 0.00 0.00 89 1014.3
20260508084533 60 191 2.0 5.0 0.00 0.00 0.00 88 1014.4
20260508084033 60 234 1.0 3.0 0.00 0.00 0.00 88 1014.4
20260508083534 60 267 0.0 2.0 0.00 0.00 0.00 88 1014.4
20260508083033 60 244 1.0 2.0 0.00 0.00 0.00 88 1014.5
20260508082532 60 296 1.0 2.0 0.00 0.00 0.00 89 1014.5
20260508082031 60 251 1.0 3.0 0.00 0.00 0.00 88 1014.5
20260508081753 60 240 1.0 5.0 0.00 0.00 0.00 88 1014.7
20260508081033 61 169 3.0 5.0 0.00 0.00 0.00 89 1014.7
20260508080532 61 189 3.0 3.0 0.00 0.00 0.00 88 1014.7
20260508080032 61 224 2.0 2.0 0.00 0.00 0.00 88 1014.8
20260508075533 61 252 0.0 1.0 0.00 0.00 0.00 88 1014.8
20260508075253 61 246 0.0 1.0 0.00 0.00 0.00 88 1014.9
20260508074531 61 256 0.0 3.0 0.00 0.00 0.00 88 1014.9
20260508074031 61 246 0.0 3.0 0.00 0.00 0.00 88 1014.9
20260508073755 61 332 0.0 2.0 0.00 0.00 0.00 87 1014.8
20260508073032 61 248 0.0 1.0 0.00 0.00 0.00 87 1014.9
20260508072532 61 258 0.0 1.0 0.00 0.00 0.00 87 1014.8
20260508072032 61 243 0.0 1.0 0.00 0.00 0.00 87 1014.8
20260508071530 61 250 0.0 1.0 0.00 0.00 0.00 87 1014.9
20260508071032 60 248 0.0 2.0 0.00 0.00 0.00 87 1015.0
20260508070531 60 254 0.0 2.0 0.00 0.00 0.00 87 1015.0
20260508070030 60 252 0.0 1.0 0.00 0.00 0.00 88 1015.0
20260508065530 60 262 0.0 1.0 0.00 0.00 0.00 88 1015.0
20260508065257 60 239 0.0 2.0 0.00 0.00 0.00 88 1015.1
20260508064530 61 238 1.0 2.0 0.00 0.00 0.00 87 1015.1
20260508064031 61 243 1.0 2.0 0.00 0.00 0.00 87 1015.1
20260508063530 61 235 1.0 3.0 0.00 0.00 0.00 87 1015.2
20260508063030 61 225 1.0 5.0 0.00 0.00 0.00 87 1015.1
20260508062531 61 271 0.0 5.0 0.00 0.00 0.00 87 1015.1
20260508062029 61 158 3.0 5.0 0.00 0.00 0.00 87 1015.1
20260508061529 61 221 0.0 2.0 0.00 0.00 0.00 87 1015.2
20260508061030 61 237 0.0 2.0 0.00 0.00 0.00 87 1015.2
20260508060531 61 242 0.0 3.0 0.00 0.00 0.00 86 1015.2
20260508060029 61 252 0.0 5.0 0.00 0.00 0.00 87 1015.3
20260508055529 61 250 2.0 6.0 0.00 0.00 0.00 87 1015.2
20260508055029 61 224 3.0 6.0 0.00 0.00 0.00 87 1015.2
20260508054530 61 212 3.0 5.0 0.00 0.00 0.00 87 1015.1
20260508054029 61 240 2.0 5.0 0.00 0.00 0.00 87 1015.2
20260508053529 61 213 3.0 5.0 0.00 0.00 0.00 86 1015.1
20260508053253 61 242 1.0 2.0 0.00 0.00 0.00 86 1015.1
20260508052529 61 253 0.0 1.0 0.00 0.00 0.00 86 1015.1
20260508052028 61 255 0.0 1.0 0.00 0.00 0.00 86 1015.1
20260508051528 61 264 0.0 1.0 0.00 0.00 0.00 86 1015.1
20260508051031 61 253 1.0 3.0 0.00 0.00 0.00 86 1015.1
20260508050530 61 243 1.0 5.0 0.00 0.00 0.00 86 1015.1
20260508050028 61 236 2.0 6.0 0.00 0.00 0.00 86 1015.1
20260508045748 61 254 0.0 6.0 0.00 0.00 0.00 86 1015.1
20260508045029 61 248 1.0 5.0 0.00 0.00 0.00 86 1015.1
20260508044757 61 221 4.0 5.0 0.00 0.00 0.00 86 1015.1
20260508044027 61 243 1.0 6.0 0.00 0.00 0.00 86 1015.1
20260508043528 61 245 2.0 8.0 0.00 0.00 0.00 86 1015.0
20260508043028 61 218 4.0 8.0 0.00 0.00 0.00 86 1014.9
20260508042528 61 220 6.0 7.0 0.00 0.00 0.00 86 1014.8
20260508042026 61 263 1.0 3.0 0.00 0.00 0.00 86 1014.7
20260508041751 61 257 0.0 3.0 0.00 0.00 0.00 86 1014.6
20260508041026 61 251 2.0 3.0 0.00 0.00 0.00 86 1014.5
20260508040528 61 244 0.0 2.0 0.00 0.00 0.00 86 1014.5
20260508040249 61 264 0.0 2.0 0.00 0.00 0.00 86 1014.4
20260508035526 61 266 2.0 2.0 0.00 0.00 0.00 86 1014.4
20260508035026 61 265 0.0 2.0 0.00 0.00 0.00 86 1014.4
20260508034748 61 270 0.0 3.0 0.00 0.00 0.00 86 1014.4
20260508034027 60 239 0.0 3.0 0.00 0.00 0.00 87 1014.2
20260508033525 60 227 2.0 2.0 0.00 0.00 0.00 87 1014.3
20260508033026 60 254 0.0 3.0 0.00 0.00 0.00 87 1014.2
20260508032027 60 250 1.0 5.0 0.00 0.00 0.00 87 1014.1
20260508031526 60 260 2.0 5.0 0.00 0.00 0.00 88 1014.0